Time,TemperatureF,DewpointF,PressureIn,WindDirection,WindDirectionDegrees,WindSpeedMPH,WindSpeedGustMPH,Humidity,HourlyPrecipIn,Conditions,Clouds,dailyrainin,SoftwareType,DateUTC
2013-03-28 00:03:00,30.2,26.0,24.07,NNW,340,0.0,0.0,84,0.00,,---,0.00,VWS V14.01,2013-03-28 06:03:00,
2013-03-28 00:09:00,30.2,26.0,24.07,NNW,340,0.0,0.0,84,0.00,,---,0.00,VWS V14.01,2013-03-28 06:09:00,
2013-03-28 00:15:00,30.0,25.8,24.07,NNW,340,0.0,0.0,84,0.00,,---,0.00,VWS V14.01,2013-03-28 06:15:00,
2013-03-28 00:21:00,30.0,26.1,24.07,NNW,340,0.0,0.0,85,0.00,,---,0.00,VWS V14.01,2013-03-28 06:21:00,
2013-03-28 00:26:00,30.0,26.1,24.07,NNW,340,0.0,0.0,85,0.00,,---,0.00,VWS V14.01,2013-03-28 06:26:00,
2013-03-28 00:32:00,29.8,25.9,24.07,NNW,340,0.0,0.0,85,0.00,,---,0.00,VWS V14.01,2013-03-28 06:32:00,
2013-03-28 00:38:00,29.7,25.7,24.07,SW,225,0.0,0.0,85,0.00,,---,0.00,VWS V14.01,2013-03-28 06:38:00,
2013-03-28 00:43:00,29.7,25.7,24.07,SW,225,0.0,0.0,85,0.00,,---,0.00,VWS V14.01,2013-03-28 06:43:00,
2013-03-28 00:49:00,29.5,25.5,24.07,SW,225,0.0,0.0,85,0.00,,---,0.00,VWS V14.01,2013-03-28 06:49:00,
2013-03-28 00:55:00,29.5,25.5,24.07,SW,225,0.0,0.0,85,0.00,,---,0.00,VWS V14.01,2013-03-28 06:55:00,
2013-03-28 01:01:00,29.5,25.8,24.07,SW,225,0.0,0.0,86,0.00,,---,0.00,VWS V14.01,2013-03-28 07:01:00,
2013-03-28 01:08:00,29.5,25.8,24.07,SW,224,0.0,0.0,86,0.51,,---,0.00,VWS V14.01,2013-03-28 07:08:00,
2013-03-28 01:13:00,29.5,25.8,24.07,SW,224,0.0,0.0,86,0.00,,---,0.00,VWS V14.01,2013-03-28 07:13:00,
2013-03-28 01:19:00,29.3,25.6,24.07,SW,224,0.0,0.0,86,0.00,,---,0.00,VWS V14.01,2013-03-28 07:19:00,
2013-03-28 01:25:00,29.5,25.8,24.07,SW,224,0.0,0.0,86,0.00,,---,0.00,VWS V14.01,2013-03-28 07:25:00,
2013-03-28 01:32:00,29.5,25.8,24.07,SW,224,0.0,0.0,86,0.00,,---,0.00,VWS V14.01,2013-03-28 07:32:00,
2013-03-28 01:37:00,29.3,25.6,24.07,SW,224,0.0,0.0,86,0.00,,---,0.00,VWS V14.01,2013-03-28 07:37:00,
2013-03-28 01:42:00,29.3,25.6,24.07,SW,224,0.0,0.0,86,0.00,,---,0.00,VWS V14.01,2013-03-28 07:42:00,
2013-03-28 01:48:00,29.3,25.6,24.07,SW,224,0.0,0.0,86,0.00,,---,0.00,VWS V14.01,2013-03-28 07:48:00,
2013-03-28 01:53:00,29.5,26.1,24.07,SW,224,0.0,0.0,87,0.00,,---,0.00,VWS V14.01,2013-03-28 07:53:00,
2013-03-28 01:59:00,29.5,26.1,24.04,SW,224,0.0,0.0,87,0.00,,---,0.00,VWS V14.01,2013-03-28 07:59:00,
2013-03-28 02:05:00,29.3,25.9,24.04,SW,224,0.0,0.0,87,0.00,,---,0.00,VWS V14.01,2013-03-28 08:05:00,
2013-03-28 02:10:00,29.5,26.1,24.04,SW,224,0.0,0.0,87,0.00,,---,0.00,VWS V14.01,2013-03-28 08:10:00,
2013-03-28 02:15:00,29.3,25.9,24.04,SW,224,0.0,0.0,87,0.00,,---,0.00,VWS V14.01,2013-03-28 08:15:00,
2013-03-28 02:22:00,29.1,25.7,24.04,SW,224,0.0,0.0,87,0.00,,---,0.00,VWS V14.01,2013-03-28 08:22:00,
2013-03-28 02:28:00,29.1,25.7,24.04,SW,224,0.0,0.0,87,0.00,,---,0.00,VWS V14.01,2013-03-28 08:28:00,
2013-03-28 02:34:00,29.1,25.7,24.04,SW,224,0.0,0.0,87,0.00,,---,0.00,VWS V14.01,2013-03-28 08:34:00,
2013-03-28 02:39:00,28.9,25.6,24.04,SW,224,0.0,0.0,87,0.00,,---,0.00,VWS V14.01,2013-03-28 08:39:00,
2013-03-28 02:44:00,28.9,25.6,24.04,SW,224,0.0,0.0,87,0.00,,---,0.00,VWS V14.01,2013-03-28 08:44:00,
2013-03-28 02:49:00,28.9,25.6,24.04,SW,224,0.0,0.0,87,0.00,,---,0.00,VWS V14.01,2013-03-28 08:49:00,
2013-03-28 02:54:00,28.9,25.6,24.04,SW,224,0.0,0.0,87,0.00,,---,0.00,VWS V14.01,2013-03-28 08:54:00,
2013-03-28 03:00:00,29.1,26.0,24.04,SW,224,0.0,0.0,88,0.00,,---,0.00,VWS V14.01,2013-03-28 09:00:00,
2013-03-28 03:05:00,29.1,26.0,24.04,SW,224,0.0,0.0,88,0.00,,---,0.00,VWS V14.01,2013-03-28 09:05:00,
2013-03-28 03:10:00,29.3,26.2,24.04,SW,230,0.0,0.0,88,0.00,,---,0.00,VWS V14.01,2013-03-28 09:10:00,
2013-03-28 03:15:00,29.3,26.2,24.04,SW,230,0.0,0.0,88,0.00,,---,0.00,VWS V14.01,2013-03-28 09:15:00,
2013-03-28 03:22:00,29.3,26.2,24.04,SW,230,0.0,0.0,88,0.00,,---,0.00,VWS V14.01,2013-03-28 09:22:00,
2013-03-28 03:27:00,29.1,26.0,24.04,SW,230,0.0,0.0,88,0.00,,---,0.00,VWS V14.01,2013-03-28 09:27:00,
2013-03-28 03:32:00,29.3,26.2,24.04,SW,233,0.0,0.0,88,0.00,,---,0.00,VWS V14.01,2013-03-28 09:32:00,
2013-03-28 03:38:00,29.1,26.0,24.04,SW,233,0.0,0.0,88,0.00,,---,0.00,VWS V14.01,2013-03-28 09:38:00,
2013-03-28 03:43:00,29.5,26.4,24.04,SW,233,0.0,0.0,88,0.00,,---,0.00,VWS V14.01,2013-03-28 09:43:00,
2013-03-28 03:48:00,29.3,26.2,24.04,SW,233,0.0,0.0,88,0.00,,---,0.00,VWS V14.01,2013-03-28 09:48:00,
2013-03-28 03:54:00,29.3,26.2,24.04,SW,233,0.0,0.0,88,0.00,,---,0.00,VWS V14.01,2013-03-28 09:54:00,
2013-03-28 03:59:00,29.1,26.0,24.04,SW,233,0.0,0.0,88,0.00,,---,0.00,VWS V14.01,2013-03-28 09:59:00,
2013-03-28 04:05:00,28.9,25.8,24.04,SW,233,0.0,0.0,88,0.00,,---,0.00,VWS V14.01,2013-03-28 10:05:00,
2013-03-28 04:11:00,28.8,25.4,24.04,SW,233,0.0,0.0,87,0.00,,---,0.00,VWS V14.01,2013-03-28 10:11:00,
2013-03-28 04:16:00,28.9,25.6,24.04,SW,233,0.0,0.0,87,0.00,,---,0.00,VWS V14.01,2013-03-28 10:16:00,
2013-03-28 04:22:00,28.8,25.4,24.04,SW,233,0.0,0.0,87,0.00,,---,0.00,VWS V14.01,2013-03-28 10:22:00,
2013-03-28 04:27:00,28.8,25.4,24.04,SW,233,0.0,0.0,87,0.00,,---,0.00,VWS V14.01,2013-03-28 10:27:00,
2013-03-28 04:32:00,28.8,25.4,24.04,SW,233,0.0,0.0,87,0.00,,---,0.00,VWS V14.01,2013-03-28 10:32:00,
2013-03-28 04:37:00,28.8,25.4,24.04,SW,233,0.0,0.0,87,0.00,,---,0.00,VWS V14.01,2013-03-28 10:37:00,
2013-03-28 04:42:00,28.8,25.4,24.04,SW,233,0.0,0.0,87,0.00,,---,0.00,VWS V14.01,2013-03-28 10:42:00,
2013-03-28 04:48:00,28.9,25.6,24.04,SW,233,0.0,0.0,87,0.00,,---,0.00,VWS V14.01,2013-03-28 10:48:00,
2013-03-28 04:54:00,28.8,25.4,24.04,SW,233,0.0,0.0,87,0.00,,---,0.00,VWS V14.01,2013-03-28 10:54:00,
2013-03-28 05:00:00,28.8,25.4,24.04,SW,233,0.0,0.0,87,0.00,,---,0.00,VWS V14.01,2013-03-28 11:00:00,
2013-03-28 05:05:00,28.6,25.2,24.04,SW,233,0.0,0.0,87,0.00,,---,0.00,VWS V14.01,2013-03-28 11:05:00,
2013-03-28 05:11:00,28.6,25.2,24.04,SW,233,0.0,0.0,87,0.00,,---,0.00,VWS V14.01,2013-03-28 11:11:00,
2013-03-28 05:17:00,29.1,25.7,24.04,SW,233,0.0,0.0,87,0.00,,---,0.00,VWS V14.01,2013-03-28 11:17:00,
2013-03-28 05:22:00,29.3,25.9,24.04,SW,233,0.0,0.0,87,0.00,,---,0.00,VWS V14.01,2013-03-28 11:22:00,
2013-03-28 05:28:00,29.3,25.9,24.04,SW,233,0.0,0.0,87,0.00,,---,0.00,VWS V14.01,2013-03-28 11:28:00,
2013-03-28 05:34:00,29.3,25.9,24.04,SW,233,0.0,0.0,87,0.00,,---,0.00,VWS V14.01,2013-03-28 11:34:00,
2013-03-28 05:40:00,29.3,25.6,24.04,SW,233,0.0,0.0,86,0.00,,---,0.00,VWS V14.01,2013-03-28 11:40:00,
2013-03-28 05:45:00,29.7,26.0,24.04,SW,233,0.0,0.0,86,0.00,,---,0.00,VWS V14.01,2013-03-28 11:45:00,
2013-03-28 05:50:00,29.8,26.2,24.04,SW,233,0.0,0.0,86,0.00,,---,0.00,VWS V14.01,2013-03-28 11:50:00,
2013-03-28 05:57:00,29.5,25.5,24.04,SW,233,0.0,0.0,85,0.00,,---,0.00,VWS V14.01,2013-03-28 11:57:00,
2013-03-28 06:03:00,29.5,25.2,24.04,SW,233,0.0,0.0,84,0.00,,---,0.00,VWS V14.01,2013-03-28 12:03:00,
2013-03-28 06:09:00,29.5,25.0,24.04,SW,233,0.0,0.0,83,0.00,,---,0.00,VWS V14.01,2013-03-28 12:09:00,
2013-03-28 06:15:00,29.5,25.0,24.04,SW,233,0.0,0.0,83,0.00,,---,0.00,VWS V14.01,2013-03-28 12:15:00,
2013-03-28 06:21:00,29.5,24.7,24.04,SW,233,0.0,0.0,82,0.00,,---,0.00,VWS V14.01,2013-03-28 12:21:00,
2013-03-28 06:27:00,29.8,24.7,24.04,WNW,293,0.0,0.0,81,0.00,,---,0.00,VWS V14.01,2013-03-28 12:27:00,
2013-03-28 06:33:00,29.8,24.7,24.04,WNW,292,0.0,2.7,81,0.00,,---,0.00,VWS V14.01,2013-03-28 12:33:00,
2013-03-28 06:39:00,30.4,25.3,24.04,WNW,289,0.0,0.0,81,0.00,,---,0.00,VWS V14.01,2013-03-28 12:39:00,
2013-03-28 06:45:00,30.2,24.8,24.04,WNW,289,0.0,0.0,80,0.00,,---,0.00,VWS V14.01,2013-03-28 12:45:00,
2013-03-28 06:51:00,29.8,24.1,24.04,WNW,289,0.0,0.0,79,0.00,,---,0.00,VWS V14.01,2013-03-28 12:51:00,
2013-03-28 06:56:00,30.2,24.5,24.04,WNW,289,0.0,0.0,79,0.00,,---,0.00,VWS V14.01,2013-03-28 12:56:00,
2013-03-28 07:02:00,30.2,24.2,24.04,WNW,288,0.0,0.0,78,0.00,,---,0.00,VWS V14.01,2013-03-28 13:02:00,
2013-03-28 07:08:00,30.0,23.7,24.04,WNW,288,0.0,0.0,77,0.00,,---,0.00,VWS V14.01,2013-03-28 13:08:00,
2013-03-28 07:14:00,30.2,23.6,24.07,WNW,288,0.0,0.0,76,0.00,,---,0.00,VWS V14.01,2013-03-28 13:14:00,
2013-03-28 07:20:00,30.2,23.6,24.07,WNW,288,0.0,0.0,76,0.00,,---,0.00,VWS V14.01,2013-03-28 13:20:00,
2013-03-28 07:26:00,30.2,23.2,24.07,WNW,288,0.0,0.0,75,0.00,,---,0.00,VWS V14.01,2013-03-28 13:26:00,
2013-03-28 07:32:00,30.4,22.8,24.07,WNW,288,0.0,0.0,73,0.00,,---,0.00,VWS V14.01,2013-03-28 13:32:00,
2013-03-28 07:38:00,30.6,23.0,24.07,WNW,288,0.0,0.0,73,0.00,,---,0.00,VWS V14.01,2013-03-28 13:38:00,
2013-03-28 07:43:00,30.9,23.3,24.07,WNW,288,0.0,0.0,73,0.00,,---,0.00,VWS V14.01,2013-03-28 13:43:00,
2013-03-28 07:48:00,31.1,23.1,24.07,WNW,288,0.0,0.0,72,0.00,,---,0.00,VWS V14.01,2013-03-28 13:48:00,
2013-03-28 07:54:00,31.3,23.0,24.07,WNW,288,0.0,0.0,71,0.00,,---,0.00,VWS V14.01,2013-03-28 13:54:00,
2013-03-28 07:59:00,31.6,23.0,24.07,WNW,288,0.0,0.0,70,0.00,,---,0.00,VWS V14.01,2013-03-28 13:59:00,
2013-03-28 08:04:00,31.6,23.0,24.07,WNW,288,0.0,0.0,70,0.00,,---,0.00,VWS V14.01,2013-03-28 14:04:00,
2013-03-28 08:10:00,32.0,23.3,24.07,WNW,288,0.0,0.0,70,0.00,,---,0.00,VWS V14.01,2013-03-28 14:10:00,
2013-03-28 08:15:00,32.5,23.9,24.07,WNW,288,0.0,0.0,70,0.00,,---,0.00,VWS V14.01,2013-03-28 14:15:00,
2013-03-28 08:21:00,32.7,24.0,24.07,WNW,288,0.0,0.0,70,0.00,,---,0.00,VWS V14.01,2013-03-28 14:21:00,
2013-03-28 08:27:00,32.9,23.9,24.07,WNW,288,0.0,0.0,69,0.00,,---,0.00,VWS V14.01,2013-03-28 14:27:00,
2013-03-28 08:32:00,33.3,24.2,24.07,WNW,288,0.0,0.0,69,0.00,,---,0.00,VWS V14.01,2013-03-28 14:32:00,
2013-03-28 08:38:00,33.8,24.4,24.07,WNW,288,0.0,0.0,68,0.00,,---,0.00,VWS V14.01,2013-03-28 14:38:00,
2013-03-28 08:44:00,34.3,24.5,24.07,WNW,288,0.0,0.0,67,0.00,,---,0.00,VWS V14.01,2013-03-28 14:44:00,
2013-03-28 08:50:00,35.1,25.2,24.07,SSW,205,0.0,0.0,67,0.00,,---,0.00,VWS V14.01,2013-03-28 14:50:00,
2013-03-28 08:56:00,36.1,25.9,24.07,SW,233,0.0,0.0,66,0.00,,---,0.00,VWS V14.01,2013-03-28 14:56:00,
2013-03-28 09:01:00,36.3,25.0,24.07,SW,233,0.0,0.0,63,0.00,,---,0.00,VWS V14.01,2013-03-28 15:01:00,
2013-03-28 09:07:00,37.0,24.9,24.07,SSW,210,0.0,0.0,61,0.00,,---,0.00,VWS V14.01,2013-03-28 15:07:00,
2013-03-28 09:12:00,37.8,24.7,24.07,West,279,0.0,0.0,59,0.00,,---,0.00,VWS V14.01,2013-03-28 15:12:00,
2013-03-28 09:18:00,38.5,24.6,24.07,West,279,0.0,0.0,57,0.00,,---,0.00,VWS V14.01,2013-03-28 15:18:00,
2013-03-28 09:24:00,39.0,25.5,24.07,SSW,198,0.0,0.0,58,0.00,,---,0.00,VWS V14.01,2013-03-28 15:24:00,
2013-03-28 09:30:00,40.3,25.4,24.07,SW,218,0.0,0.0,55,0.00,,---,0.00,VWS V14.01,2013-03-28 15:30:00,
2013-03-28 09:36:00,41.2,24.9,24.07,WNW,284,0.0,0.0,52,0.00,,---,0.00,VWS V14.01,2013-03-28 15:36:00,
2013-03-28 09:42:00,41.9,25.1,24.07,WSW,240,0.0,0.0,51,0.00,,---,0.00,VWS V14.01,2013-03-28 15:42:00,
2013-03-28 09:48:00,42.8,25.9,24.07,WSW,240,0.0,0.0,51,0.00,,---,0.00,VWS V14.01,2013-03-28 15:48:00,
2013-03-28 09:54:00,43.3,26.0,24.07,WSW,240,0.0,0.0,50,0.00,,---,0.00,VWS V14.01,2013-03-28 15:54:00,
2013-03-28 10:00:00,43.9,26.0,24.07,SSW,206,0.0,0.0,49,0.00,,---,0.00,VWS V14.01,2013-03-28 16:00:00,
2013-03-28 10:05:00,44.8,26.3,24.07,SSW,206,0.0,0.0,48,0.00,,---,0.00,VWS V14.01,2013-03-28 16:05:00,
2013-03-28 10:11:00,45.7,27.1,24.07,SSW,206,0.0,0.0,48,0.00,,---,0.00,VWS V14.01,2013-03-28 16:11:00,
2013-03-28 10:16:00,46.4,27.8,24.07,SSW,206,0.0,0.0,48,0.00,,---,0.00,VWS V14.01,2013-03-28 16:16:00,
2013-03-28 10:22:00,47.3,28.6,24.07,SSW,206,0.0,0.0,48,0.00,,---,0.00,VWS V14.01,2013-03-28 16:22:00,
2013-03-28 10:27:00,48.2,27.3,24.07,SSW,206,0.0,0.0,44,0.00,,---,0.00,VWS V14.01,2013-03-28 16:27:00,
2013-03-28 10:33:00,49.5,26.8,24.07,SSW,206,0.0,0.0,41,0.00,,---,0.00,VWS V14.01,2013-03-28 16:33:00,
2013-03-28 10:39:00,50.7,26.7,24.07,SSW,206,0.0,0.0,39,0.00,,---,0.00,VWS V14.01,2013-03-28 16:39:00,
2013-03-28 10:45:00,51.6,26.9,24.07,SSW,206,0.0,0.0,38,0.00,,---,0.00,VWS V14.01,2013-03-28 16:45:00,
2013-03-28 10:50:00,52.0,23.8,24.07,ENE,57,4.0,5.4,33,0.00,,---,0.00,VWS V14.01,2013-03-28 16:50:00,
2013-03-28 10:55:00,52.7,21.4,24.07,NNE,23,4.0,5.4,29,0.00,,---,0.00,VWS V14.01,2013-03-28 16:55:00,
2013-03-28 11:01:00,53.4,21.1,24.07,NE,43,3.1,4.0,28,0.00,,---,0.00,VWS V14.01,2013-03-28 17:01:00,
2013-03-28 11:06:00,53.8,20.6,24.07,ENE,65,4.9,5.4,27,0.00,,---,0.00,VWS V14.01,2013-03-28 17:06:00,
2013-03-28 11:12:00,54.0,19.9,24.07,NE,47,3.6,7.6,26,0.00,,---,0.00,VWS V14.01,2013-03-28 17:12:00,
2013-03-28 11:18:00,53.8,19.7,24.07,NE,55,5.8,5.8,26,0.00,,---,0.00,VWS V14.01,2013-03-28 17:18:00,
2013-03-28 11:24:00,53.4,20.3,24.07,ENE,68,3.1,5.4,27,0.00,,---,0.00,VWS V14.01,2013-03-28 17:24:00,
2013-03-28 11:30:00,53.2,20.1,24.07,NNE,22,4.0,5.4,27,0.00,,---,0.00,VWS V14.01,2013-03-28 17:30:00,
2013-03-28 11:36:00,53.4,20.3,24.07,NNE,27,4.9,5.8,27,0.00,,---,0.00,VWS V14.01,2013-03-28 17:36:00,
2013-03-28 11:42:00,53.8,19.7,24.07,NNE,32,3.6,6.3,26,0.00,,---,0.00,VWS V14.01,2013-03-28 17:42:00,
2013-03-28 11:47:00,53.6,19.6,24.07,North,10,4.9,6.3,26,0.00,,---,0.00,VWS V14.01,2013-03-28 17:47:00,
2013-03-28 11:53:00,53.6,19.6,24.07,NE,41,3.6,6.7,26,0.00,,---,0.00,VWS V14.01,2013-03-28 17:53:00,
2013-03-28 11:59:00,53.6,19.6,24.07,NNE,23,4.0,5.8,26,0.00,,---,0.00,VWS V14.01,2013-03-28 17:59:00,
2013-03-28 12:05:00,54.0,20.8,24.07,NE,56,3.6,5.8,27,0.00,,---,0.00,VWS V14.01,2013-03-28 18:05:00,
2013-03-28 12:10:00,54.3,21.1,24.07,North,357,4.5,6.7,27,0.00,,---,0.00,VWS V14.01,2013-03-28 18:10:00,
2013-03-28 12:17:00,55.0,20.8,24.07,ESE,123,8.7,8.7,26,0.00,,---,0.00,VWS V14.01,2013-03-28 18:17:00,
2013-03-28 12:23:00,55.2,21.0,24.07,North,9,5.4,7.6,26,0.00,,---,0.00,VWS V14.01,2013-03-28 18:23:00,
2013-03-28 12:28:00,55.6,21.3,24.07,East,81,4.0,8.1,26,0.00,,---,0.00,VWS V14.01,2013-03-28 18:28:00,
2013-03-28 12:34:00,55.8,21.4,24.07,NE,35,3.1,8.7,26,0.00,,---,0.00,VWS V14.01,2013-03-28 18:34:00,
2013-03-28 12:40:00,55.8,21.4,24.07,NNE,21,3.6,7.6,26,0.00,,---,0.00,VWS V14.01,2013-03-28 18:40:00,
2013-03-28 12:46:00,55.9,21.6,24.07,NE,36,6.3,6.3,26,0.00,,---,0.00,VWS V14.01,2013-03-28 18:46:00,
2013-03-28 12:51:00,56.1,21.7,24.07,ENE,59,5.4,5.8,26,0.00,,---,0.00,VWS V14.01,2013-03-28 18:51:00,
2013-03-28 12:56:00,56.3,21.9,24.07,NNW,348,8.3,8.3,26,0.00,,---,0.00,VWS V14.01,2013-03-28 18:56:00,
2013-03-28 13:02:00,56.7,22.2,24.07,North,357,4.0,9.6,26,0.00,,---,0.00,VWS V14.01,2013-03-28 19:02:00,
2013-03-28 13:07:00,57.4,22.8,24.07,North,11,11.0,11.0,26,0.00,,---,0.00,VWS V14.01,2013-03-28 19:07:00,
2013-03-28 13:12:00,57.6,22.0,24.07,NNW,345,6.3,6.3,25,0.00,,---,0.00,VWS V14.01,2013-03-28 19:12:00,
2013-03-28 13:18:00,58.3,23.6,24.07,NNE,17,5.8,8.1,26,0.00,,---,0.00,VWS V14.01,2013-03-28 19:18:00,
2013-03-28 13:24:00,57.6,22.0,24.07,North,7,3.1,8.7,25,0.00,,---,0.00,VWS V14.01,2013-03-28 19:24:00,
2013-03-28 13:30:00,56.7,22.2,24.07,East,99,2.7,8.7,26,0.00,,---,0.00,VWS V14.01,2013-03-28 19:30:00,
2013-03-28 13:35:00,57.2,22.6,24.07,North,353,8.3,8.3,26,0.00,,---,0.00,VWS V14.01,2013-03-28 19:35:00,
2013-03-28 13:41:00,57.7,22.2,24.07,NNE,29,7.6,7.6,25,0.00,,---,0.00,VWS V14.01,2013-03-28 19:41:00,
2013-03-28 13:47:00,57.7,22.2,24.07,ENE,77,3.1,5.8,25,0.00,,---,0.00,VWS V14.01,2013-03-28 19:47:00,
2013-03-28 13:52:00,57.7,22.2,24.07,NE,49,3.1,5.4,25,0.00,,---,0.00,VWS V14.01,2013-03-28 19:52:00,
2013-03-28 13:58:00,57.4,21.9,24.07,East,89,4.0,6.3,25,0.00,,---,0.00,VWS V14.01,2013-03-28 19:58:00,
2013-03-28 14:03:00,57.4,21.9,24.07,SE,135,2.7,4.0,25,0.00,,---,0.00,VWS V14.01,2013-03-28 20:03:00,
2013-03-28 14:09:00,57.9,22.3,24.07,NNE,28,3.6,6.3,25,0.00,,---,0.00,VWS V14.01,2013-03-28 20:09:00,
2013-03-28 14:15:00,58.1,22.5,24.04,NNE,27,4.0,4.9,25,0.00,,---,0.00,VWS V14.01,2013-03-28 20:15:00,
2013-03-28 14:20:00,57.7,22.2,24.04,NNE,23,3.1,8.1,25,0.00,,---,0.00,VWS V14.01,2013-03-28 20:20:00,
2013-03-28 14:27:00,57.9,22.3,24.04,NNE,31,3.6,4.0,25,0.00,,---,0.00,VWS V14.01,2013-03-28 20:27:00,
2013-03-28 14:33:00,58.5,22.8,24.04,NNE,32,5.4,5.8,25,0.00,,---,0.00,VWS V14.01,2013-03-28 20:33:00,
2013-03-28 14:39:00,58.5,22.8,24.04,ENE,78,2.2,2.7,25,0.00,,---,0.00,VWS V14.01,2013-03-28 20:39:00,
2013-03-28 14:45:00,59.0,23.2,24.04,NNE,28,4.9,6.7,25,0.00,,---,0.00,VWS V14.01,2013-03-28 20:45:00,
2013-03-28 14:51:00,59.2,23.4,24.04,NNE,24,3.6,8.7,25,0.00,,---,0.00,VWS V14.01,2013-03-28 20:51:00,
2013-03-28 14:56:00,59.2,23.4,24.04,NE,50,2.7,5.8,25,0.00,,---,0.00,VWS V14.01,2013-03-28 20:56:00,
2013-03-28 15:02:00,59.5,23.7,24.04,NE,52,0.0,2.7,25,0.00,,---,0.00,VWS V14.01,2013-03-28 21:02:00,
2013-03-28 15:07:00,59.9,24.0,24.04,NNE,20,5.4,5.8,25,0.00,,---,0.00,VWS V14.01,2013-03-28 21:07:00,
2013-03-28 15:13:00,59.4,23.6,24.04,NNE,14,2.7,6.3,25,0.00,,---,0.00,VWS V14.01,2013-03-28 21:13:00,
2013-03-28 15:19:00,58.6,22.9,24.04,NW,323,6.3,8.3,25,0.00,,---,0.00,VWS V14.01,2013-03-28 21:19:00,
2013-03-28 15:25:00,58.3,22.6,24.04,SW,227,4.9,4.9,25,0.00,,---,0.00,VWS V14.01,2013-03-28 21:25:00,
2013-03-28 15:32:00,59.7,22.9,24.04,North,353,5.4,5.8,24,0.00,,---,0.00,VWS V14.01,2013-03-28 21:32:00,
2013-03-28 15:38:00,60.4,23.5,24.04,NE,48,4.0,8.1,24,0.00,,---,0.00,VWS V14.01,2013-03-28 21:38:00,
2013-03-28 15:43:00,60.1,23.2,24.04,NNW,340,4.9,6.3,24,0.00,,---,0.00,VWS V14.01,2013-03-28 21:43:00,
2013-03-28 15:49:00,60.1,23.2,24.04,NE,38,0.0,4.0,24,0.00,,---,0.00,VWS V14.01,2013-03-28 21:49:00,
2013-03-28 15:55:00,60.4,23.5,24.04,North,353,3.1,4.0,24,0.00,,---,0.00,VWS V14.01,2013-03-28 21:55:00,
2013-03-28 16:01:00,60.4,23.5,24.04,NE,54,3.6,4.0,24,0.00,,---,0.00,VWS V14.01,2013-03-28 22:01:00,
2013-03-28 16:06:00,60.4,24.5,24.04,NE,38,3.6,3.6,25,0.00,,---,0.00,VWS V14.01,2013-03-28 22:06:00,
2013-03-28 16:12:00,60.1,24.2,24.04,East,88,0.0,2.2,25,0.00,,---,0.00,VWS V14.01,2013-03-28 22:12:00,
2013-03-28 16:18:00,60.1,24.2,24.04,North,357,2.7,4.9,25,0.00,,---,0.00,VWS V14.01,2013-03-28 22:18:00,
2013-03-28 16:24:00,59.2,22.4,24.04,North,350,2.2,6.3,24,0.00,,---,0.00,VWS V14.01,2013-03-28 22:24:00,
2013-03-28 16:30:00,57.6,22.0,24.04,NNE,28,0.0,0.0,25,0.00,,---,0.00,VWS V14.01,2013-03-28 22:30:00,
2013-03-28 16:36:00,57.0,22.5,24.04,NNE,28,0.0,0.0,26,0.00,,---,0.00,VWS V14.01,2013-03-28 22:36:00,
2013-03-28 16:42:00,56.8,22.3,24.04,NNE,28,0.0,0.0,26,0.00,,---,0.00,VWS V14.01,2013-03-28 22:42:00,
2013-03-28 16:47:00,56.3,21.9,24.04,NNE,28,0.0,0.0,26,0.00,,---,0.00,VWS V14.01,2013-03-28 22:47:00,
2013-03-28 16:52:00,56.5,22.0,24.04,North,3,4.9,4.9,26,0.00,,---,0.00,VWS V14.01,2013-03-28 22:52:00,
2013-03-28 16:58:00,57.0,22.5,24.04,North,4,0.0,0.0,26,0.00,,---,0.00,VWS V14.01,2013-03-28 22:58:00,
2013-03-28 17:03:00,56.7,22.2,24.04,North,4,0.0,0.0,26,0.00,,---,0.00,VWS V14.01,2013-03-28 23:03:00,
2013-03-28 17:08:00,55.6,21.3,24.04,North,4,0.0,0.0,26,0.00,,---,0.00,VWS V14.01,2013-03-28 23:08:00,
2013-03-28 17:14:00,55.0,21.7,24.04,North,4,0.0,0.0,27,0.00,,---,0.00,VWS V14.01,2013-03-28 23:14:00,
2013-03-28 17:20:00,54.9,21.5,24.04,North,4,0.0,0.0,27,0.00,,---,0.00,VWS V14.01,2013-03-28 23:20:00,
2013-03-28 17:25:00,54.7,21.4,24.04,SW,227,0.0,0.0,27,0.00,,---,0.00,VWS V14.01,2013-03-28 23:25:00,
2013-03-28 17:31:00,53.4,20.3,24.04,SW,226,0.0,0.0,27,0.00,,---,0.00,VWS V14.01,2013-03-28 23:31:00,
2013-03-28 17:36:00,52.0,19.9,24.04,SW,226,0.0,0.0,28,0.00,,---,0.00,VWS V14.01,2013-03-28 23:36:00,
2013-03-28 17:41:00,51.1,20.0,24.04,SW,226,0.0,0.0,29,0.00,,---,0.00,VWS V14.01,2013-03-28 23:41:00,
2013-03-28 17:47:00,50.7,19.6,24.04,North,357,2.7,5.4,29,0.00,,---,0.00,VWS V14.01,2013-03-28 23:47:00,
2013-03-28 17:53:00,51.1,20.8,24.04,NE,55,0.0,0.0,30,0.00,,---,0.00,VWS V14.01,2013-03-28 23:53:00,
2013-03-28 17:58:00,50.9,20.6,24.04,ENE,72,4.0,5.4,30,0.00,,---,0.00,VWS V14.01,2013-03-28 23:58:00,
2013-03-28 18:04:00,51.6,22.0,24.04,ENE,78,0.0,0.0,31,0.00,,---,0.00,VWS V14.01,2013-03-29 00:04:00,
2013-03-28 18:09:00,52.9,23.1,24.04,WNW,295,3.1,5.4,31,0.00,,---,0.00,VWS V14.01,2013-03-29 00:09:00,
2013-03-28 18:14:00,53.4,22.8,24.07,South,179,3.6,3.6,30,0.00,,---,0.00,VWS V14.01,2013-03-29 00:14:00,
2013-03-28 18:20:00,53.8,22.3,24.07,SSE,160,4.0,4.9,29,0.00,,---,0.00,VWS V14.01,2013-03-29 00:20:00,
2013-03-28 18:38:00,54.5,22.1,24.07,ENE,57,5.8,6.3,28,0.00,,---,0.00,VWS V14.01,2013-03-29 00:38:00,
2013-03-28 18:47:00,54.5,22.1,24.07,SE,138,5.4,5.4,28,0.00,,---,0.00,VWS V14.01,2013-03-29 00:47:00,
2013-03-28 18:59:00,50.7,20.4,24.07,South,191,6.3,7.6,30,0.00,,---,0.00,VWS V14.01,2013-03-29 00:59:00,
2013-03-28 19:09:00,47.7,21.4,24.07,West,265,0.0,0.0,35,0.00,,---,0.00,VWS V14.01,2013-03-29 01:09:00,
2013-03-28 19:20:00,45.0,20.9,24.07,SW,223,0.0,0.0,38,0.00,,---,0.00,VWS V14.01,2013-03-29 01:20:00,
2013-03-28 19:30:00,43.7,21.0,24.07,SW,223,0.0,0.0,40,0.00,,---,0.00,VWS V14.01,2013-03-29 01:30:00,
2013-03-28 19:42:00,42.3,21.4,24.07,SW,223,0.0,0.0,43,0.00,,---,0.00,VWS V14.01,2013-03-29 01:42:00,
2013-03-28 19:47:00,41.7,22.0,24.07,SW,223,0.0,0.0,45,0.00,,---,0.00,VWS V14.01,2013-03-29 01:47:00,
2013-03-28 19:52:00,41.2,22.5,24.07,SW,223,0.0,0.0,47,0.00,,---,0.00,VWS V14.01,2013-03-29 01:52:00,
2013-03-28 19:57:00,41.0,22.8,24.10,SW,223,0.0,0.0,48,0.00,,---,0.00,VWS V14.01,2013-03-29 01:57:00,
2013-03-28 20:02:00,40.6,23.5,24.10,SW,223,0.0,0.0,50,0.00,,---,0.00,VWS V14.01,2013-03-29 02:02:00,
2013-03-28 20:07:00,40.5,23.3,24.10,SW,223,0.0,0.0,50,0.00,,---,0.00,VWS V14.01,2013-03-29 02:07:00,
2013-03-28 20:13:00,40.1,23.4,24.10,SW,223,0.0,0.0,51,0.00,,---,0.00,VWS V14.01,2013-03-29 02:13:00,
2013-03-28 20:18:00,39.7,23.1,24.10,SW,223,0.0,0.0,51,0.00,,---,0.00,VWS V14.01,2013-03-29 02:18:00,
2013-03-28 20:24:00,39.7,23.6,24.10,SW,223,0.0,0.0,52,0.00,,---,0.00,VWS V14.01,2013-03-29 02:24:00,
2013-03-28 20:29:00,39.4,23.2,24.10,SW,223,0.0,0.0,52,0.00,,---,0.00,VWS V14.01,2013-03-29 02:29:00,
2013-03-28 20:35:00,39.0,23.4,24.10,SW,223,0.0,0.0,53,0.00,,---,0.00,VWS V14.01,2013-03-29 02:35:00,
2013-03-28 20:41:00,38.8,23.6,24.10,SW,223,0.0,0.0,54,0.00,,---,0.00,VWS V14.01,2013-03-29 02:41:00,
2013-03-28 20:46:00,38.7,23.9,24.10,WSW,239,0.0,0.0,55,0.00,,---,0.00,VWS V14.01,2013-03-29 02:46:00,
2013-03-28 20:52:00,38.1,23.4,24.10,WSW,239,0.0,0.0,55,0.00,,---,0.00,VWS V14.01,2013-03-29 02:52:00,
2013-03-28 20:58:00,37.8,23.5,24.10,WSW,239,0.0,0.0,56,0.00,,---,0.00,VWS V14.01,2013-03-29 02:58:00,
2013-03-28 21:03:00,37.6,23.7,24.10,WSW,239,0.0,0.0,57,0.00,,---,0.00,VWS V14.01,2013-03-29 03:03:00,
2013-03-28 21:08:00,37.2,23.8,24.10,WSW,239,0.0,0.0,58,0.00,,---,0.00,VWS V14.01,2013-03-29 03:08:00,
2013-03-28 21:14:00,37.0,23.6,24.10,WSW,239,0.0,0.0,58,0.00,,---,0.00,VWS V14.01,2013-03-29 03:14:00,
2013-03-28 21:20:00,36.9,23.9,24.10,WSW,239,0.0,0.0,59,0.00,,---,0.00,VWS V14.01,2013-03-29 03:20:00,
2013-03-28 21:26:00,36.3,23.4,24.10,WSW,239,0.0,0.0,59,0.00,,---,0.00,VWS V14.01,2013-03-29 03:26:00,
2013-03-28 21:31:00,36.1,24.0,24.10,WSW,239,0.0,0.0,61,0.00,,---,0.00,VWS V14.01,2013-03-29 03:31:00,
2013-03-28 21:37:00,36.1,24.4,24.10,WSW,239,0.0,0.0,62,0.00,,---,0.00,VWS V14.01,2013-03-29 03:37:00,
2013-03-28 21:42:00,36.0,24.2,24.13,WSW,239,0.0,0.0,62,0.00,,---,0.00,VWS V14.01,2013-03-29 03:42:00,
2013-03-28 21:47:00,35.8,24.0,24.13,WSW,239,0.0,0.0,62,0.00,,---,0.00,VWS V14.01,2013-03-29 03:47:00,
2013-03-28 21:53:00,35.6,24.3,24.13,WSW,239,0.0,0.0,63,0.00,,---,0.00,VWS V14.01,2013-03-29 03:53:00,
2013-03-28 21:58:00,35.4,24.1,24.13,WSW,239,0.0,0.0,63,0.00,,---,0.00,VWS V14.01,2013-03-29 03:58:00,
2013-03-28 22:00:00,35.2,24.3,24.13,WSW,239,0.0,0.0,64,0.00,,---,0.00,VWS V14.01,2013-03-29 04:00:00,
2013-03-28 22:01:00,35.2,24.3,24.13,WSW,239,0.0,0.0,64,0.00,,---,0.00,VWS V14.01,2013-03-29 04:01:00,
2013-03-28 22:03:00,35.1,24.1,24.13,WSW,239,0.0,0.0,64,0.00,,---,0.00,VWS V14.01,2013-03-29 04:03:00,
2013-03-28 22:05:00,35.1,24.5,24.13,WSW,239,0.0,0.0,65,0.00,,---,0.00,VWS V14.01,2013-03-29 04:05:00,
2013-03-28 22:11:00,35.1,24.9,24.13,WSW,239,0.0,0.0,66,0.00,,---,0.00,VWS V14.01,2013-03-29 04:11:00,
2013-03-28 22:17:00,35.1,25.2,24.13,WSW,239,0.0,0.0,67,0.00,,---,0.00,VWS V14.01,2013-03-29 04:17:00,
2013-03-28 22:23:00,34.9,24.7,24.13,WSW,239,0.0,0.0,66,0.00,,---,0.00,VWS V14.01,2013-03-29 04:23:00,
2013-03-28 22:28:00,34.7,24.5,24.13,WSW,239,0.0,0.0,66,0.00,,---,0.00,VWS V14.01,2013-03-29 04:28:00,
2013-03-28 22:33:00,34.7,24.9,24.13,WSW,239,0.0,0.0,67,0.00,,---,0.00,VWS V14.01,2013-03-29 04:33:00,
2013-03-28 22:39:00,34.7,25.2,24.13,WSW,239,0.0,0.0,68,0.00,,---,0.00,VWS V14.01,2013-03-29 04:39:00,
2013-03-28 22:45:00,34.9,25.4,24.13,WSW,239,0.0,0.0,68,0.00,,---,0.00,VWS V14.01,2013-03-29 04:45:00,
2013-03-28 22:51:00,34.5,25.1,24.13,WSW,239,0.0,0.0,68,0.00,,---,0.00,VWS V14.01,2013-03-29 04:51:00,
2013-03-28 22:57:00,34.3,24.9,24.13,WSW,239,0.0,0.0,68,0.00,,---,0.00,VWS V14.01,2013-03-29 04:57:00,
2013-03-28 23:03:00,34.7,25.9,24.13,WSW,239,0.0,0.0,70,0.00,,---,0.00,VWS V14.01,2013-03-29 05:03:00,
2013-03-28 23:09:00,34.5,25.4,24.13,WSW,239,0.0,0.0,69,0.00,,---,0.00,VWS V14.01,2013-03-29 05:09:00,
2013-03-28 23:15:00,34.5,25.4,24.10,WSW,239,0.0,0.0,69,0.00,,---,0.00,VWS V14.01,2013-03-29 05:15:00,
2013-03-28 23:21:00,34.3,25.6,24.10,WSW,239,0.0,0.0,70,0.00,,---,0.00,VWS V14.01,2013-03-29 05:21:00,
2013-03-28 23:26:00,34.3,25.6,24.13,WSW,239,0.0,0.0,70,0.00,,---,0.00,VWS V14.01,2013-03-29 05:26:00,
2013-03-28 23:31:00,34.5,25.8,24.13,WNW,286,2.2,3.1,70,0.00,,---,0.00,VWS V14.01,2013-03-29 05:31:00,
2013-03-28 23:37:00,34.5,26.1,24.13,WNW,286,2.2,2.7,71,0.00,,---,0.00,VWS V14.01,2013-03-29 05:37:00,
2013-03-28 23:43:00,34.9,26.5,24.10,West,262,0.0,0.0,71,0.00,,---,0.00,VWS V14.01,2013-03-29 05:43:00,
2013-03-28 23:49:00,34.9,26.1,24.10,SW,227,0.0,0.0,70,0.00,,---,0.00,VWS V14.01,2013-03-29 05:49:00,
2013-03-28 23:55:00,34.5,25.4,24.10,WSW,257,0.0,0.0,69,0.00,,---,0.00,VWS V14.01,2013-03-29 05:55:00,